Location: Fiennes
(50.8274°N, 1.8253°E)
Time: 23:12:11
(UTC+00:00)

Cosmos 1536 - Pass Details

Date: 15 May 2026
Orbit: 482 x 500 km, 82.5° (Epoch: 11 June)

Event Time Altitude Azimuth Distance (km) Brightness Sun altitude
Rises 23:05:40 0° 340° (NNW) 2,572 7.8 -19.5°
Reaches altitude 10° 23:07:59 10° 328° (NNW) 1,688 6.3 -19.5°
Maximum altitude 23:11:07 27° 270° (W) 975 4.1 -19.6°
Enters shadow 23:11:59 24° 246° (WSW) 1,043 4.1 -19.6°
